| time (UTC) | temp F | wind direction | speed knots | gust knots | rain 1hr in | rain 24hr in | rain mn in | humidity % | barometer mb |
| 20260507015521 | 73 | 3 | 3.5 | 17.4 | 0.00 | 0.00 | 0.00 | 15 | 1016.8 |
| 20260507015018 | 73 | 345 | 8.7 | 10.4 | 0.00 | 0.00 | 0.00 | 14 | 1016.6 |
| 20260507014514 | 73 | 342 | 6.1 | 11.3 | 0.00 | 0.00 | 0.00 | 15 | 1016.8 |
| 20260507014010 | 74 | 352 | 1.7 | 7.0 | 0.00 | 0.00 | 0.00 | 14 | 1016.8 |
| 20260507013507 | 74 | 19 | 4.3 | 7.8 | 0.00 | 0.00 | 0.00 | 14 | 1017.1 |
| 20260507013004 | 74 | 327 | 2.6 | 15.6 | 0.00 | 0.00 | 0.00 | 15 | 1016.8 |
| 20260507012500 | 74 | 356 | 7.0 | 14.8 | 0.00 | 0.00 | 0.00 | 14 | 1016.7 |
| 20260507011951 | 74 | 7 | 12.2 | 16.5 | 0.00 | 0.00 | 0.00 | 14 | 1016.3 |
| 20260507011448 | 74 | 303 | 2.6 | 11.3 | 0.00 | 0.00 | 0.00 | 14 | 1016.6 |
| 20260507010944 | 75 | 1 | 14.8 | 16.5 | 0.00 | 0.00 | 0.00 | 14 | 1016.6 |
| 20260507010439 | 75 | 325 | 8.7 | 17.4 | 0.00 | 0.00 | 0.00 | 13 | 1016.6 |
| 20260507005936 | 74 | 346 | 12.2 | 17.4 | 0.00 | 0.00 | 0.00 | 14 | 1016.6 |
| 20260507005433 | 75 | 315 | 10.4 | 13.0 | 0.00 | 0.00 | 0.00 | 13 | 1016.5 |
| 20260507004930 | 75 | 319 | 7.8 | 14.8 | 0.00 | 0.00 | 0.00 | 14 | 1016.6 |
| 20260507004427 | 75 | 316 | 15.6 | 15.6 | 0.00 | 0.00 | 0.00 | 14 | 1016.6 |
| 20260507003924 | 75 | 324 | 8.7 | 16.5 | 0.00 | 0.00 | 0.00 | 14 | 1016.4 |
| 20260507003419 | 75 | 349 | 11.3 | 20.0 | 0.00 | 0.00 | 0.00 | 14 | 1016.6 |
| 20260507002914 | 76 | 14 | 6.1 | 13.0 | 0.00 | 0.00 | 0.00 | 14 | 1016.7 |
| 20260507002411 | 75 | 323 | 9.6 | 18.2 | 0.00 | 0.00 | 0.00 | 15 | 1016.4 |
| 20260507001908 | 75 | 340 | 7.0 | 19.1 | 0.00 | 0.00 | 0.00 | 15 | 1016.4 |
| 20260507001405 | 75 | 346 | 11.3 | 24.3 | 0.00 | 0.00 | 0.00 | 15 | 1016.4 |
| 20260507000902 | 76 | 3 | 6.1 | 17.4 | 0.00 | 0.00 | 0.00 | 14 | 1016.2 |
| 20260507000357 | 76 | 0 | 12.2 | 20.0 | 0.00 | 0.00 | 0.00 | 14 | 1016.1 |
| 20260506235853 | 76 | 349 | 10.4 | 19.1 | 0.00 | 0.00 | 0.00 | 15 | 1016.1 |
| 20260506235350 | 75 | 315 | 20.9 | 22.6 | 0.00 | 0.00 | 0.00 | 15 | 1016.1 |
| 20260506234845 | 76 | 356 | 14.8 | 20.9 | 0.00 | 0.00 | 0.00 | 14 | 1016.1 |
| 20260506234344 | 76 | 325 | 11.3 | 17.4 | 0.00 | 0.00 | 0.00 | 15 | 1016.2 |
| 20260506233842 | 76 | 333 | 7.8 | 17.4 | 0.00 | 0.00 | 0.00 | 16 | 1016.2 |
| 20260506233337 | 77 | 23 | 2.6 | 15.6 | 0.00 | 0.00 | 0.00 | 17 | 1015.9 |
| 20260506232834 | 76 | 3 | 7.8 | 20.9 | 0.00 | 0.00 | 0.00 | 16 | 1016.1 |
| 20260506232330 | 77 | 331 | 13.0 | 16.5 | 0.00 | 0.00 | 0.00 | 16 | 1015.9 |
| 20260506231826 | 77 | 334 | 8.7 | 22.6 | 0.00 | 0.00 | 0.00 | 16 | 1016.1 |
| 20260506231324 | 76 | 340 | 10.4 | 17.4 | 0.00 | 0.00 | 0.00 | 16 | 1016.2 |
| 20260506230821 | 77 | 341 | 9.6 | 14.8 | 0.00 | 0.00 | 0.00 | 17 | 1016.1 |
| 20260506230318 | 77 | 24 | 4.3 | 18.2 | 0.00 | 0.00 | 0.00 | 16 | 1015.8 |
| 20260506225814 | 77 | 335 | 3.5 | 12.2 | 0.00 | 0.00 | 0.00 | 16 | 1016.1 |
| 20260506225312 | 76 | 358 | 15.6 | 26.9 | 0.00 | 0.00 | 0.00 | 16 | 1015.8 |
| 20260506224808 | 77 | 0 | 17.4 | 22.6 | 0.00 | 0.00 | 0.00 | 16 | 1016.1 |
| 20260506224306 | 77 | 357 | 13.0 | 20.9 | 0.00 | 0.00 | 0.00 | 16 | 1016.3 |
| 20260506223802 | 77 | 81 | 6.1 | 16.5 | 0.00 | 0.00 | 0.00 | 17 | 1015.8 |
| 20260506223258 | 78 | 308 | 7.8 | 17.4 | 0.00 | 0.00 | 0.00 | 17 | 1016.2 |
| 20260506222755 | 76 | 350 | 14.8 | 25.2 | 0.00 | 0.00 | 0.00 | 17 | 1016.2 |
| 20260506222250 | 76 | 311 | 7.8 | 22.6 | 0.00 | 0.00 | 0.00 | 17 | 1015.8 |
| 20260506221748 | 77 | 2 | 9.6 | 16.5 | 0.00 | 0.00 | 0.00 | 17 | 1016.1 |
| 20260506221246 | 79 | 358 | 8.7 | 16.5 | 0.00 | 0.00 | 0.00 | 17 | 1016.2 |
| 20260506220744 | 78 | 19 | 5.2 | 17.4 | 0.00 | 0.00 | 0.00 | 18 | 1016.3 |
| 20260506220238 | 77 | 315 | 6.1 | 13.0 | 0.00 | 0.00 | 0.00 | 18 | 1016.6 |
| 20260506215736 | 77 | 0 | 8.7 | 17.4 | 0.00 | 0.00 | 0.00 | 19 | 1016.5 |
| 20260506215231 | 77 | 353 | 13.9 | 19.1 | 0.00 | 0.00 | 0.00 | 18 | 1016.4 |
| 20260506214727 | 77 | 9 | 4.3 | 20.0 | 0.00 | 0.00 | 0.00 | 19 | 1016.6 |
| 20260506214225 | 76 | 21 | 13.0 | 20.0 | 0.00 | 0.00 | 0.00 | 20 | 1016.5 |
| 20260506213722 | 78 | 40 | 6.1 | 12.2 | 0.00 | 0.00 | 0.00 | 18 | 1016.6 |
| 20260506213219 | 76 | 353 | 8.7 | 16.5 | 0.00 | 0.00 | 0.00 | 20 | 1016.6 |
| 20260506212716 | 76 | 0 | 1.7 | 12.2 | 0.00 | 0.00 | 0.00 | 21 | 1016.6 |
| 20260506212211 | 76 | 355 | 9.6 | 21.7 | 0.00 | 0.00 | 0.00 | 21 | 1016.6 |
| 20260506211707 | 75 | 157 | 1.7 | 12.2 | 0.00 | 0.00 | 0.00 | 22 | 1016.7 |
| 20260506211204 | 76 | 308 | 9.6 | 20.9 | 0.00 | 0.00 | 0.00 | 21 | 1016.5 |
| 20260506210702 | 77 | 0 | 5.2 | 13.0 | 0.00 | 0.00 | 0.00 | 21 | 1016.3 |
| 20260506210158 | 76 | 328 | 5.2 | 11.3 | 0.00 | 0.00 | 0.00 | 23 | 1016.7 |
| 20260506205656 | 77 | 342 | 12.2 | 17.4 | 0.00 | 0.00 | 0.00 | 22 | 1016.7 |
| 20260506205155 | 78 | 326 | 5.2 | 8.7 | 0.00 | 0.00 | 0.00 | 21 | 1016.9 |
| 20260506204653 | 76 | 331 | 4.3 | 16.5 | 0.00 | 0.00 | 0.00 | 23 | 1016.7 |
| 20260506204150 | 77 | 17 | 7.0 | 20.0 | 0.00 | 0.00 | 0.00 | 21 | 1016.5 |
| 20260506203648 | 77 | 17 | 5.2 | 19.1 | 0.00 | 0.00 | 0.00 | 22 | 1016.6 |
| 20260506203145 | 76 | 278 | 1.7 | 13.9 | 0.00 | 0.00 | 0.00 | 23 | 1016.2 |
| 20260506202643 | 77 | 18 | 6.1 | 21.7 | 0.00 | 0.00 | 0.00 | 24 | 1016.5 |
| 20260506202139 | 78 | 155 | 2.6 | 9.6 | 0.00 | 0.00 | 0.00 | 22 | 1016.5 |
| 20260506201636 | 76 | 52 | 5.2 | 9.6 | 0.00 | 0.00 | 0.00 | 23 | 1016.6 |
| 20260506201132 | 76 | 347 | 5.2 | 5.2 | 0.00 | 0.00 | 0.00 | 24 | 1016.8 |
| 20260506200629 | 76 | 338 | 10.4 | 19.1 | 0.00 | 0.00 | 0.00 | 24 | 1016.7 |
| 20260506200126 | 76 | 0 | 0.9 | 7.0 | 0.00 | 0.00 | 0.00 | 25 | 1016.5 |
| 20260506195622 | 75 | 350 | 7.8 | 15.6 | 0.00 | 0.00 | 0.00 | 25 | 1016.6 |
| 20260506195119 | 76 | 319 | 1.7 | 13.0 | 0.00 | 0.00 | 0.00 | 25 | 1016.7 |
| 20260506194616 | 74 | 327 | 7.8 | 20.0 | 0.00 | 0.00 | 0.00 | 25 | 1016.8 |
| 20260506194113 | 75 | 300 | 6.1 | 18.2 | 0.00 | 0.00 | 0.00 | 26 | 1016.7 |
| 20260506193610 | 75 | 311 | 14.8 | 14.8 | 0.00 | 0.00 | 0.00 | 26 | 1017.1 |
| 20260506193108 | 75 | 5 | 4.3 | 13.0 | 0.00 | 0.00 | 0.00 | 26 | 1016.5 |
| 20260506192604 | 75 | 348 | 13.9 | 14.8 | 0.00 | 0.00 | 0.00 | 26 | 1016.8 |
| 20260506192100 | 75 | 330 | 7.8 | 13.9 | 0.00 | 0.00 | 0.00 | 26 | 1016.8 |
| 20260506191557 | 75 | 301 | 13.9 | 18.2 | 0.00 | 0.00 | 0.00 | 25 | 1016.8 |
| 20260506191053 | 74 | 237 | 4.3 | 7.8 | 0.00 | 0.00 | 0.00 | 26 | 1016.6 |
| 20260506190550 | 74 | 359 | 8.7 | 13.0 | 0.00 | 0.00 | 0.00 | 26 | 1016.7 |
| 20260506190047 | 76 | 35 | 0.0 | 7.8 | 0.00 | 0.00 | 0.00 | 26 | 1016.8 |
| 20260506185544 | 75 | 281 | 4.3 | 8.7 | 0.00 | 0.00 | 0.00 | 26 | 1017.2 |
| 20260506185041 | 73 | 295 | 1.7 | 12.2 | 0.00 | 0.00 | 0.00 | 27 | 1017.1 |
| 20260506184538 | 75 | 12 | 16.5 | 16.5 | 0.00 | 0.00 | 0.00 | 27 | 1017.1 |
| 20260506184035 | 74 | 350 | 4.3 | 10.4 | 0.00 | 0.00 | 0.00 | 28 | 1017.1 |
| 20260506183531 | 73 | 312 | 6.1 | 16.5 | 0.00 | 0.00 | 0.00 | 27 | 1016.7 |
| 20260506183028 | 73 | 266 | 4.3 | 8.7 | 0.00 | 0.00 | 0.00 | 27 | 1017.2 |
| 20260506182526 | 73 | 164 | 2.6 | 9.6 | 0.00 | 0.00 | 0.00 | 27 | 1017.2 |
| 20260506182022 | 71 | 282 | 6.1 | 11.3 | 0.00 | 0.00 | 0.00 | 28 | 1017.3 |
| 20260506181520 | 73 | 223 | 4.3 | 13.9 | 0.00 | 0.00 | 0.00 | 27 | 1017.1 |
| 20260506181017 | 72 | 244 | 2.6 | 4.3 | 0.00 | 0.00 | 0.00 | 28 | 1017.2 |
| 20260506180514 | 71 | 231 | 2.6 | 9.6 | 0.00 | 0.00 | 0.00 | 28 | 1016.8 |
| 20260506180010 | 71 | 297 | 1.7 | 9.6 | 0.00 | 0.00 | 0.00 | 28 | 1017.2 |
| 20260506175507 | 70 | 235 | 3.5 | 7.8 | 0.00 | 0.00 | 0.00 | 29 | 1017.1 |
| 20260506175003 | 70 | 191 | 3.5 | 10.4 | 0.00 | 0.00 | 0.00 | 29 | 1017.1 |
| 20260506174502 | 70 | 207 | 8.7 | 13.0 | 0.00 | 0.00 | 0.00 | 29 | 1017.2 |
| 20260506173957 | 70 | 244 | 7.8 | 11.3 | 0.00 | 0.00 | 0.00 | 29 | 1017.1 |
| 20260506173455 | 67 | 162 | 1.7 | 15.6 | 0.00 | 0.00 | 0.00 | 30 | 1017.1 |
| 20260506172952 | 68 | 206 | 0.9 | 5.2 | 0.00 | 0.00 | 0.00 | 31 | 1016.8 |
| 20260506172449 | 70 | 262 | 4.3 | 13.0 | 0.00 | 0.00 | 0.00 | 28 | 1016.8 |
| 20260506171945 | 70 | 203 | 5.2 | 10.4 | 0.00 | 0.00 | 0.00 | 29 | 1016.9 |
| 20260506171443 | 69 | 195 | 12.2 | 12.2 | 0.00 | 0.00 | 0.00 | 29 | 1016.9 |
| 20260506170941 | 69 | 223 | 7.8 | 11.3 | 0.00 | 0.00 | 0.00 | 29 | 1016.8 |
| 20260506170437 | 68 | 235 | 6.1 | 13.9 | 0.00 | 0.00 | 0.00 | 30 | 1016.8 |
| 20260506165936 | 69 | 187 | 2.6 | 11.3 | 0.00 | 0.00 | 0.00 | 29 | 1016.7 |
| 20260506165434 | 68 | 184 | 7.8 | 10.4 | 0.00 | 0.00 | 0.00 | 29 | 1016.9 |
| 20260506164930 | 67 | 175 | 4.3 | 9.6 | 0.00 | 0.00 | 0.00 | 29 | 1016.8 |
| 20260506164426 | 68 | 196 | 2.6 | 6.1 | 0.00 | 0.00 | 0.00 | 29 | 1016.7 |
| 20260506163919 | 68 | 245 | 6.1 | 9.6 | 0.00 | 0.00 | 0.00 | 29 | 1017.1 |
| 20260506163413 | 66 | 244 | 7.8 | 9.6 | 0.00 | 0.00 | 0.00 | 30 | 1017.2 |
| 20260506162908 | 66 | 225 | 5.2 | 9.6 | 0.00 | 0.00 | 0.00 | 30 | 1017.1 |
| 20260506162407 | 66 | 201 | 5.2 | 10.4 | 0.00 | 0.00 | 0.00 | 29 | 1017.1 |
| 20260506161904 | 65 | 208 | 4.3 | 8.7 | 0.00 | 0.00 | 0.00 | 30 | 1017.2 |
| 20260506161401 | 67 | 222 | 4.3 | 8.7 | 0.00 | 0.00 | 0.00 | 30 | 1017.2 |
| 20260506160853 | 66 | 237 | 7.8 | 9.6 | 0.00 | 0.00 | 0.00 | 30 | 1016.9 |
| 20260506160350 | 65 | 224 | 7.8 | 11.3 | 0.00 | 0.00 | 0.00 | 30 | 1016.7 |
| 20260506155848 | 64 | 192 | 3.5 | 7.8 | 0.00 | 0.00 | 0.00 | 31 | 1017.1 |
| 20260506155344 | 64 | 283 | 7.0 | 12.2 | 0.00 | 0.00 | 0.00 | 31 | 1017.2 |
| 20260506153456 | 63 | 214 | 5.2 | 11.3 | 0.00 | 0.00 | 0.00 | 32 | 1017.4 |
| 20260506152953 | 64 | 263 | 7.0 | 8.7 | 0.00 | 0.00 | 0.00 | 31 | 1017.4 |
| 20260506152450 | 63 | 255 | 2.6 | 10.4 | 0.00 | 0.00 | 0.00 | 32 | 1017.1 |
| 20260506151948 | 63 | 298 | 5.2 | 9.6 | 0.00 | 0.00 | 0.00 | 31 | 1017.1 |
| 20260506151445 | 64 | 234 | 5.2 | 7.8 | 0.00 | 0.00 | 0.00 | 31 | 1017.3 |
| 20260506150943 | 64 | 192 | 2.6 | 4.3 | 0.00 | 0.00 | 0.00 | 31 | 1016.9 |
| 20260506150438 | 63 | 286 | 0.0 | 3.5 | 0.00 | 0.00 | 0.00 | 31 | 1017.2 |
| 20260506145936 | 63 | 195 | 0.9 | 2.6 | 0.00 | 0.00 | 0.00 | 32 | 1016.9 |
| 20260506145432 | 63 | 294 | 1.7 | 2.6 | 0.00 | 0.00 | 0.00 | 32 | 1016.7 |
| 20260506144930 | 64 | 172 | 0.0 | 2.6 | 0.00 | 0.00 | 0.00 | 32 | 1017.1 |
| 20260506144426 | 66 | 90 | 0.9 | 1.7 | 0.00 | 0.00 | 0.00 | 31 | 1016.7 |
| 20260506143925 | 63 | 105 | 0.9 | 2.6 | 0.00 | 0.00 | 0.00 | 34 | 1016.9 |
| 20260506143421 | 63 | 83 | 0.9 | 2.6 | 0.00 | 0.00 | 0.00 | 33 | 1016.8 |
| 20260506142920 | 62 | 162 | 0.0 | 2.6 | 0.00 | 0.00 | 0.00 | 35 | 1016.7 |
| 20260506142417 | 60 | 106 | 0.0 | 1.7 | 0.00 | 0.00 | 0.00 | 37 | 1016.6 |
| 20260506141915 | 59 | 156 | 1.7 | 4.3 | 0.00 | 0.00 | 0.00 | 39 | 1016.8 |
| 20260506141413 | 60 | 127 | 1.7 | 3.5 | 0.00 | 0.00 | 0.00 | 36 | 1016.6 |
| 20260506140911 | 60 | 145 | 0.9 | 1.7 | 0.00 | 0.00 | 0.00 | 37 | 1016.8 |
| 20260506140408 | 58 | 105 | 0.0 | 1.7 | 0.00 | 0.00 | 0.00 | 38 | 1016.5 |
| 20260506135905 | 55 | 260 | 1.7 | 2.6 | 0.00 | 0.00 | 0.00 | 41 | 1016.5 |
| 20260506135402 | 53 | 203 | 0.0 | 0.9 | 0.00 | 0.00 | 0.00 | 44 | 1016.4 |
| 20260506134858 | 52 | 131 | 0.0 | 1.7 | 0.00 | 0.00 | 0.00 | 45 | 1016.3 |
| 20260506134354 | 51 | 175 | 1.7 | 1.7 | 0.00 | 0.00 | 0.00 | 45 | 1016.2 |
| 20260506133851 | 51 | 90 | 0.0 | 1.7 | 0.00 | 0.00 | 0.00 | 45 | 1016.1 |
| 20260506133348 | 50 | 111 | 0.9 | 1.7 | 0.00 | 0.00 | 0.00 | 46 | 1016.2 |
| 20260506132844 | 50 | 114 | 1.7 | 2.6 | 0.00 | 0.00 | 0.00 | 46 | 1016.1 |
| 20260506132342 | 51 | 132 | 1.7 | 2.6 | 0.00 | 0.00 | 0.00 | 46 | 1015.7 |
| 20260506131840 | 50 | 90 | 1.7 | 2.6 | 0.00 | 0.00 | 0.00 | 45 | 1016.1 |
| 20260506131336 | 50 | 90 | 1.7 | 1.7 | 0.00 | 0.00 | 0.00 | 47 | 1015.7 |
| 20260506130833 | 50 | 105 | 0.0 | 2.6 | 0.00 | 0.00 | 0.00 | 45 | 1015.3 |
| 20260506130329 | 48 | 87 | 2.6 | 2.6 | 0.00 | 0.00 | 0.00 | 49 | 1015.5 |
| 20260506125827 | 48 | 129 | 1.7 | 2.6 | 0.00 | 0.00 | 0.00 | 48 | 1015.5 |
| 20260506125325 | 48 | 29 | 0.0 | 0.0 | 0.00 | 0.00 | 0.00 | 48 | 1015.4 |
| 20260506124824 | 50 | 119 | 0.0 | 2.6 | 0.00 | 0.00 | 0.00 | 45 | 1015.4 |
| 20260506124320 | 49 | 172 | 0.0 | 2.6 | 0.00 | 0.00 | 0.00 | 45 | 1015.4 |
| 20260506123818 | 49 | 95 | 0.0 | 2.6 | 0.00 | 0.00 | 0.00 | 46 | 1015.1 |
| 20260506123316 | 50 | 10 | 1.7 | 1.7 | 0.00 | 0.00 | 0.00 | 45 | 1015.3 |
| 20260506122813 | 49 | 90 | 0.9 | 0.9 | 0.00 | 0.00 | 0.00 | 45 | 1014.9 |
| 20260506122310 | 48 | 32 | 0.9 | 2.6 | 0.00 | 0.00 | 0.00 | 47 | 1014.8 |
| 20260506121808 | 50 | 29 | 0.9 | 1.7 | 0.00 | 0.00 | 0.00 | 45 | 1014.6 |
| 20260506121304 | 51 | 101 | 2.6 | 3.5 | 0.00 | 0.00 | 0.00 | 43 | 1014.7 |
| 20260506120802 | 51 | 178 | 3.5 | 3.5 | 0.00 | 0.00 | 0.00 | 44 | 1014.7 |
| 20260506120300 | 51 | 69 | 0.0 | 1.7 | 0.00 | 0.00 | 0.00 | 44 | 1014.5 |
| 20260506115757 | 51 | 130 | 1.7 | 1.7 | 0.00 | 0.00 | 0.00 | 43 | 1014.6 |
| 20260506115255 | 52 | 90 | 0.0 | 2.6 | 0.00 | 0.00 | 0.00 | 42 | 1014.5 |
| 20260506114753 | 53 | 61 | 2.6 | 2.6 | 0.00 | 0.00 | 0.00 | 41 | 1014.4 |
| 20260506114250 | 53 | 90 | 2.6 | 4.3 | 0.00 | 0.00 | 0.00 | 40 | 1014.4 |
| 20260506113748 | 52 | 102 | 1.7 | 4.3 | 0.00 | 0.00 | 0.00 | 41 | 1014.5 |
| 20260506113246 | 53 | 97 | 3.5 | 3.5 | 0.00 | 0.00 | 0.00 | 41 | 1014.3 |
| 20260506112742 | 53 | 74 | 0.9 | 1.7 | 0.00 | 0.00 | 0.00 | 41 | 1014.3 |
| 20260506112240 | 53 | 90 | 0.0 | 1.7 | 0.00 | 0.00 | 0.00 | 41 | 1014.3 |
| 20260506111737 | 53 | 105 | 1.7 | 2.6 | 0.00 | 0.00 | 0.00 | 40 | 1014.0 |
| 20260506111235 | 54 | 12 | 1.7 | 2.6 | 0.00 | 0.00 | 0.00 | 39 | 1014.2 |
| 20260506110731 | 53 | 99 | 0.0 | 0.9 | 0.00 | 0.00 | 0.00 | 40 | 1014.3 |
| 20260506110229 | 54 | 54 | 0.0 | 1.7 | 0.00 | 0.00 | 0.00 | 39 | 1014.4 |
| 20260506105726 | 54 | 55 | 0.0 | 1.7 | 0.00 | 0.00 | 0.00 | 39 | 1014.0 |
| 20260506105223 | 54 | 0 | 0.0 | 2.6 | 0.00 | 0.00 | 0.00 | 38 | 1013.9 |
| 20260506104721 | 54 | 60 | 0.9 | 2.6 | 0.00 | 0.00 | 0.00 | 38 | 1013.9 |
| 20260506104218 | 54 | 348 | 1.7 | 2.6 | 0.00 | 0.00 | 0.00 | 38 | 1013.7 |
| 20260506103715 | 54 | 0 | 0.9 | 1.7 | 0.00 | 0.00 | 0.00 | 39 | 1014.0 |
| 20260506103212 | 54 | 81 | 0.0 | 1.7 | 0.00 | 0.00 | 0.00 | 39 | 1013.8 |
| 20260506102710 | 54 | 14 | 0.9 | 2.6 | 0.00 | 0.00 | 0.00 | 39 | 1013.5 |
| 20260506102208 | 54 | 34 | 1.7 | 1.7 | 0.00 | 0.00 | 0.00 | 39 | 1013.6 |
| 20260506101704 | 54 | 306 | 0.9 | 2.6 | 0.00 | 0.00 | 0.00 | 38 | 1013.6 |
| 20260506101200 | 54 | 15 | 0.0 | 1.7 | 0.00 | 0.00 | 0.00 | 38 | 1013.6 |
| 20260506100659 | 55 | 301 | 1.7 | 2.6 | 0.00 | 0.00 | 0.00 | 37 | 1013.7 |
| 20260506100156 | 55 | 292 | 0.0 | 2.6 | 0.00 | 0.00 | 0.00 | 37 | 1013.5 |
| 20260506095655 | 55 | 304 | 0.0 | 2.6 | 0.00 | 0.00 | 0.00 | 37 | 1013.5 |
| 20260506095151 | 55 | 345 | 0.9 | 3.5 | 0.00 | 0.00 | 0.00 | 37 | 1013.5 |
| 20260506094649 | 55 | 356 | 1.7 | 2.6 | 0.00 | 0.00 | 0.00 | 36 | 1013.4 |
| 20260506094146 | 55 | 14 | 0.0 | 0.9 | 0.00 | 0.00 | 0.00 | 36 | 1013.2 |
| 20260506093645 | 56 | 212 | 0.0 | 4.3 | 0.00 | 0.00 | 0.00 | 35 | 1013.3 |
| 20260506093142 | 56 | 244 | 2.6 | 4.3 | 0.00 | 0.00 | 0.00 | 34 | 1013.4 |
| 20260506092639 | 57 | 222 | 2.6 | 5.2 | 0.00 | 0.00 | 0.00 | 33 | 1013.2 |
| 20260506092136 | 57 | 235 | 2.6 | 5.2 | 0.00 | 0.00 | 0.00 | 33 | 1013.0 |
| 20260506091634 | 58 | 209 | 3.5 | 7.8 | 0.00 | 0.00 | 0.00 | 33 | 1013.2 |
| 20260506091132 | 57 | 192 | 2.6 | 6.1 | 0.00 | 0.00 | 0.00 | 34 | 1013.0 |
| 20260506090630 | 58 | 192 | 3.5 | 4.3 | 0.00 | 0.00 | 0.00 | 34 | 1013.4 |
| 20260506090125 | 59 | 185 | 2.6 | 6.1 | 0.00 | 0.00 | 0.00 | 33 | 1013.0 |
| 20260506085623 | 59 | 194 | 4.3 | 7.0 | 0.00 | 0.00 | 0.00 | 33 | 1013.5 |
| 20260506085119 | 59 | 206 | 4.3 | 7.0 | 0.00 | 0.00 | 0.00 | 33 | 1013.0 |
| 20260506084615 | 59 | 225 | 2.6 | 7.0 | 0.00 | 0.00 | 0.00 | 32 | 1012.9 |
| 20260506084112 | 59 | 223 | 4.3 | 4.3 | 0.00 | 0.00 | 0.00 | 33 | 1013.0 |
| 20260506083609 | 60 | 216 | 1.7 | 7.8 | 0.00 | 0.00 | 0.00 | 32 | 1012.8 |
| 20260506083107 | 60 | 228 | 4.3 | 6.1 | 0.00 | 0.00 | 0.00 | 32 | 1012.8 |
| 20260506082603 | 60 | 226 | 5.2 | 8.7 | 0.00 | 0.00 | 0.00 | 31 | 1012.7 |
| 20260506082059 | 60 | 220 | 1.7 | 6.1 | 0.00 | 0.00 | 0.00 | 31 | 1012.8 |
| 20260506081557 | 60 | 228 | 1.7 | 6.1 | 0.00 | 0.00 | 0.00 | 31 | 1013.0 |
| 20260506081054 | 59 | 227 | 2.6 | 5.2 | 0.00 | 0.00 | 0.00 | 32 | 1012.6 |
| 20260506080552 | 60 | 238 | 2.6 | 6.1 | 0.00 | 0.00 | 0.00 | 31 | 1012.8 |
| 20260506073032 | 60 | 237 | 2.6 | 3.5 | 0.00 | 0.00 | 0.00 | 29 | 1012.6 |
| 20260506072530 | 61 | 238 | 2.6 | 6.1 | 0.00 | 0.00 | 0.00 | 29 | 1012.6 |
| 20260506072027 | 60 | 234 | 2.6 | 5.2 | 0.00 | 0.00 | 0.00 | 29 | 1012.7 |
| 20260506071525 | 61 | 229 | 2.6 | 5.2 | 0.00 | 0.00 | 0.00 | 28 | 1012.7 |
| 20260506071022 | 61 | 255 | 1.7 | 6.1 | 0.00 | 0.00 | 0.00 | 28 | 1012.6 |
| 20260506070519 | 61 | 234 | 5.2 | 6.1 | 0.00 | 0.00 | 0.00 | 28 | 1012.5 |
| 20260506062457 | 63 | 196 | 2.6 | 6.1 | 0.00 | 0.00 | 0.00 | 26 | 1012.4 |
| 20260506061953 | 63 | 205 | 6.1 | 9.6 | 0.00 | 0.00 | 0.00 | 26 | 1012.3 |
| 20260506061449 | 63 | 195 | 3.5 | 10.4 | 0.00 | 0.00 | 0.00 | 26 | 1012.2 |
| 20260506060947 | 63 | 230 | 8.7 | 8.7 | 0.00 | 0.00 | 0.00 | 25 | 1012.3 |
| 20260506060445 | 63 | 232 | 6.1 | 7.8 | 0.00 | 0.00 | 0.00 | 25 | 1011.9 |
| 20260506050914 | 64 | 205 | 4.3 | 7.0 | 0.00 | 0.00 | 0.00 | 24 | 1011.4 |
| 20260506050412 | 64 | 227 | 6.1 | 10.4 | 0.00 | 0.00 | 0.00 | 24 | 1011.6 |
| 20260506044902 | 64 | 213 | 1.7 | 7.8 | 0.00 | 0.00 | 0.00 | 25 | 1011.5 |
| 20260506044400 | 64 | 216 | 4.3 | 6.1 | 0.00 | 0.00 | 0.00 | 25 | 1011.6 |
| 20260506043857 | 64 | 183 | 2.6 | 7.0 | 0.00 | 0.00 | 0.00 | 25 | 1011.7 |
| 20260506043354 | 64 | 218 | 3.5 | 7.0 | 0.00 | 0.00 | 0.00 | 25 | 1011.5 |
| 20260506042852 | 64 | 264 | 4.3 | 7.8 | 0.00 | 0.00 | 0.00 | 25 | 1011.5 |
| 20260506042351 | 64 | 246 | 3.5 | 7.8 | 0.00 | 0.00 | 0.00 | 25 | 1011.6 |
| 20260506041849 | 64 | 220 | 2.6 | 8.7 | 0.00 | 0.00 | 0.00 | 25 | 1011.3 |
| 20260506041346 | 64 | 214 | 7.8 | 8.7 | 0.00 | 0.00 | 0.00 | 24 | 1011.3 |
| 20260506040843 | 64 | 234 | 3.5 | 8.7 | 0.00 | 0.00 | 0.00 | 25 | 1011.0 |
| 20260506040340 | 64 | 220 | 4.3 | 8.7 | 0.00 | 0.00 | 0.00 | 25 | 1010.8 |
| 20260506035836 | 64 | 204 | 2.6 | 9.6 | 0.00 | 0.00 | 0.00 | 26 | 1011.0 |
| 20260506035334 | 64 | 200 | 2.6 | 8.7 | 0.00 | 0.00 | 0.00 | 26 | 1010.8 |
| 20260506034831 | 64 | 215 | 4.3 | 10.4 | 0.00 | 0.00 | 0.00 | 26 | 1010.7 |
| 20260506034328 | 64 | 211 | 6.1 | 10.4 | 0.00 | 0.00 | 0.00 | 26 | 1010.5 |
| 20260506033825 | 64 | 214 | 5.2 | 7.8 | 0.00 | 0.00 | 0.00 | 26 | 1010.7 |
| 20260506033322 | 64 | 245 | 6.1 | 7.8 | 0.00 | 0.00 | 0.00 | 26 | 1010.5 |
| 20260506032819 | 64 | 202 | 3.5 | 10.4 | 0.00 | 0.00 | 0.00 | 26 | 1010.4 |
| 20260506032316 | 64 | 218 | 4.3 | 8.7 | 0.00 | 0.00 | 0.00 | 27 | 1010.4 |
| 20260506031813 | 64 | 228 | 7.0 | 12.2 | 0.00 | 0.00 | 0.00 | 26 | 1010.0 |
| 20260506031310 | 64 | 216 | 5.2 | 8.7 | 0.00 | 0.00 | 0.00 | 27 | 1010.0 |
| 20260506030807 | 64 | 191 | 2.6 | 7.8 | 0.00 | 0.00 | 0.00 | 27 | 1010.2 |
| 20260506030305 | 64 | 214 | 2.6 | 10.4 | 0.00 | 0.00 | 0.00 | 26 | 1009.8 |
| 20260506025802 | 64 | 220 | 6.1 | 9.6 | 0.00 | 0.00 | 0.00 | 26 | 1009.7 |
| 20260506025258 | 64 | 221 | 3.5 | 9.6 | 0.00 | 0.00 | 0.00 | 26 | 1009.7 |
| 20260506024755 | 64 | 227 | 5.2 | 11.3 | 0.00 | 0.00 | 0.00 | 25 | 1009.5 |
| 20260506024252 | 64 | 227 | 5.2 | 11.3 | 0.00 | 0.00 | 0.00 | 25 | 1009.7 |
| 20260506023748 | 65 | 214 | 3.5 | 9.6 | 0.00 | 0.00 | 0.00 | 26 | 1009.5 |
| 20260506023245 | 65 | 202 | 6.1 | 11.3 | 0.00 | 0.00 | 0.00 | 26 | 1009.5 |
| 20260506022742 | 65 | 206 | 4.3 | 11.3 | 0.00 | 0.00 | 0.00 | 25 | 1009.3 |
| 20260506022240 | 65 | 228 | 4.3 | 13.9 | 0.00 | 0.00 | 0.00 | 25 | 1009.0 |
| 20260506021738 | 65 | 208 | 7.8 | 13.0 | 0.00 | 0.00 | 0.00 | 25 | 1008.9 |
| 20260506021234 | 65 | 222 | 5.2 | 9.6 | 0.00 | 0.00 | 0.00 | 25 | 1009.3 |
| 20260506020731 | 66 | 225 | 4.3 | 10.4 | 0.00 | 0.00 | 0.00 | 24 | 1008.9 |
| 20260506020229 | 66 | 178 | 3.5 | 10.4 | 0.00 | 0.00 | 0.00 | 24 | 1008.9 |
| 20260506015726 | 66 | 223 | 7.0 | 13.0 | 0.00 | 0.00 | 0.00 | 23 | 1008.6 |